Previsão horária em Aberaeron

Hoje, 13 Abril, Terça-feira

Tempo Temperatura Precipitação Vento Pressão Humidade
00:00 +2°C° 0 mm 1 m/s 765 mmHg 90%
01:00 +2°C° 0 mm 1 m/s 765 mmHg 89%
02:00 +2°C° 0 mm 1 m/s 765 mmHg 88%
03:00 +3°C° 0 mm 1 m/s 765 mmHg 88%
04:00 +3°C° 0 mm 1 m/s 765 mmHg 87%
05:00 +3°C° 0 mm 1 m/s 766 mmHg 86%
06:00 +4°C° 0 mm 1 m/s 766 mmHg 84%
07:00 +5°C° 0 mm 1 m/s 766 mmHg 82%
08:00 +6°C° 0 mm 1 m/s 766 mmHg 80%
09:00 +7°C° 0 mm 1 m/s 766 mmHg 77%
10:00 +8°C° 0.1 mm 1 m/s 766 mmHg 75%
11:00 +9°C° 0.1 mm 1 m/s 766 mmHg 73%
12:00 +10°C° 0.1 mm 1 m/s 766 mmHg 70%
13:00 +9°C° 0.1 mm 2 m/s 766 mmHg 72%
14:00 +9°C° 0.1 mm 2 m/s 766 mmHg 73%
15:00 +9°C° 0.1 mm 2 m/s 766 mmHg 74%
16:00 +8°C° 0.1 mm 2 m/s 766 mmHg 78%
17:00 +9°C° 0.1 mm 1 m/s 766 mmHg 82%
18:00 +8°C° 0.1 mm 1 m/s 766 mmHg 85%
19:00 +7°C° 0 mm 1 m/s 766 mmHg 87%
20:00 +5°C° 0 mm 1 m/s 766 mmHg 88%
21:00 +4°C° 0 mm 1 m/s 766 mmHg 89%
22:00 +4°C° 0 mm 1 m/s 766 mmHg 89%
23:00 +3°C° 0 mm 1 m/s 766 mmHg 88%

Amanhã, 14 Abril, Quarta-feira

Tempo Temperatura Precipitação Vento Pressão Humidade
00:00 +3°C° 0 mm 1 m/s 766 mmHg 88%
01:00 +3°C° 0 mm 1 m/s 766 mmHg 88%
02:00 +3°C° 0 mm 1 m/s 766 mmHg 88%
03:00 +3°C° 0 mm 1 m/s 766 mmHg 88%
04:00 +3°C° 0 mm 1 m/s 766 mmHg 88%
05:00 +3°C° 0 mm 1 m/s 766 mmHg 89%
06:00 +3°C° 0 mm 1 m/s 766 mmHg 89%
07:00 +5°C° 0 mm 1 m/s 766 mmHg 83%
08:00 +7°C° 0 mm 1 m/s 766 mmHg 77%
09:00 +9°C° 0 mm 1 m/s 767 mmHg 72%
10:00 +9°C° 0 mm 2 m/s 766 mmHg 68%
11:00 +10°C° 0 mm 2 m/s 766 mmHg 64%
12:00 +12°C° 0 mm 2 m/s 766 mmHg 60%
13:00 +12°C° 0.1 mm 2 m/s 766 mmHg 62%
14:00 +12°C° 0.1 mm 2 m/s 766 mmHg 63%
15:00 +10°C° 0.1 mm 2 m/s 766 mmHg 65%
16:00 +10°C° 0.1 mm 2 m/s 766 mmHg 70%
17:00 +9°C° 0.1 mm 2 m/s 766 mmHg 76%
18:00 +8°C° 0.1 mm 3 m/s 766 mmHg 81%
19:00 +7°C° 0 mm 2 m/s 766 mmHg 83%
20:00 +6°C° 0 mm 2 m/s 766 mmHg 86%
21:00 +4°C° 0 mm 2 m/s 766 mmHg 88%
22:00 +4°C° 0 mm 2 m/s 766 mmHg 87%
23:00 +4°C° 0 mm 2 m/s 766 mmHg 87%

Depois de amanhã, 15 Abril, Quinta-feira

Tempo Temperatura Precipitação Vento Pressão Humidade
00:00 +3°C° 0 mm 2 m/s 766 mmHg 86%
01:00 +3°C° 0 mm 2 m/s 766 mmHg 86%
02:00 +2°C° 0 mm 2 m/s 766 mmHg 86%
03:00 +2°C° 0 mm 2 m/s 766 mmHg 86%
04:00 +2°C° 0 mm 2 m/s 766 mmHg 86%
05:00 +2°C° 0 mm 2 m/s 766 mmHg 86%
06:00 +2°C° 0 mm 2 m/s 766 mmHg 86%
07:00 +4°C° 0 mm 2 m/s 766 mmHg 82%
08:00 +5°C° 0 mm 2 m/s 766 mmHg 77%
09:00 +7°C° 0 mm 2 m/s 766 mmHg 73%
10:00 +8°C° 0 mm 2 m/s 766 mmHg 68%
11:00 +9°C° 0 mm 2 m/s 766 mmHg 64%
12:00 +10°C° 0 mm 2 m/s 766 mmHg 59%
13:00 +10°C° 0 mm 2 m/s 766 mmHg 58%
14:00 +10°C° 0 mm 3 m/s 765 mmHg 57%
15:00 +10°C° 0 mm 3 m/s 765 mmHg 56%
16:00 +9°C° 0 mm 3 m/s 765 mmHg 60%
17:00 +8°C° 0 mm 3 m/s 765 mmHg 65%
18:00 +8°C° 0 mm 3 m/s 765 mmHg 69%
19:00 +5°C° 0 mm 3 m/s 765 mmHg 75%
20:00 +3°C° 0 mm 4 m/s 765 mmHg 81%
21:00 0°C° 0 mm 4 m/s 765 mmHg 87%
22:00 0°C° 0 mm 4 m/s 765 mmHg 87%
23:00 0°C° 0 mm 4 m/s 765 mmHg 88%

16 Abril, Sexta-feira

Tempo Temperatura Precipitação Vento Pressão Humidade
00:00 -1°C° 0 mm 4 m/s 765 mmHg 88%
01:00 -1°C° 0 mm 4 m/s 765 mmHg 89%
02:00 -2°C° 0 mm 4 m/s 765 mmHg 89%
03:00 -3°C° 0 mm 4 m/s 765 mmHg 89%
04:00 -3°C° 0 mm 4 m/s 766 mmHg 88%
05:00 -2°C° 0 mm 3 m/s 766 mmHg 87%
06:00 -2°C° 0 mm 3 m/s 766 mmHg 85%
07:00 -1°C° 0 mm 4 m/s 766 mmHg 75%
08:00 +3°C° 0 mm 4 m/s 766 mmHg 65%
09:00 +5°C° 0 mm 4 m/s 766 mmHg 55%
10:00 +7°C° 0 mm 3 m/s 766 mmHg 52%
11:00 +8°C° 0 mm 3 m/s 766 mmHg 50%
12:00 +9°C° 0 mm 2 m/s 765 mmHg 47%
13:00 +10°C° 0 mm 2 m/s 765 mmHg 48%
14:00 +10°C° 0 mm 2 m/s 765 mmHg 48%
15:00 +10°C° 0 mm 3 m/s 765 mmHg 48%
16:00 +10°C° 0 mm 3 m/s 765 mmHg 54%
17:00 +9°C° 0 mm 3 m/s 765 mmHg 60%
18:00 +8°C° 0 mm 3 m/s 765 mmHg 67%
19:00 +7°C° 0 mm 2 m/s 765 mmHg 70%
20:00 +5°C° 0 mm 2 m/s 765 mmHg 74%
21:00 +3°C° 0 mm 2 m/s 765 mmHg 77%
22:00 +3°C° 0 mm 2 m/s 765 mmHg 80%
23:00 +3°C° 0 mm 2 m/s 765 mmHg 82%

17 Abril, Sábado

Tempo Temperatura Precipitação Vento Pressão Humidade
00:00 +1°C° 0 mm 3 m/s 765 mmHg 84%
01:00 +1°C° 0 mm 3 m/s 765 mmHg 85%
02:00 +1°C° 0 mm 3 m/s 764 mmHg 85%
03:00 0°C° 0 mm 3 m/s 764 mmHg 86%
04:00 0°C° 0 mm 3 m/s 764 mmHg 85%
05:00 0°C° 0 mm 3 m/s 764 mmHg 84%
06:00 0°C° 0 mm 3 m/s 764 mmHg 82%
07:00 +2°C° 0 mm 3 m/s 764 mmHg 75%
08:00 +4°C° 0 mm 3 m/s 764 mmHg 67%
09:00 +7°C° 0 mm 3 m/s 763 mmHg 60%
10:00 +8°C° 0 mm 3 m/s 763 mmHg 58%
11:00 +9°C° 0 mm 3 m/s 763 mmHg 56%
12:00 +9°C° 0 mm 3 m/s 762 mmHg 54%
13:00 +10°C° 0 mm 3 m/s 762 mmHg 55%
14:00 +10°C° 0 mm 3 m/s 762 mmHg 55%
15:00 +10°C° 0 mm 3 m/s 762 mmHg 55%
16:00 +9°C° 0 mm 2 m/s 761 mmHg 61%
17:00 +9°C° 0 mm 2 m/s 761 mmHg 66%
18:00 +8°C° 0 mm 2 m/s 761 mmHg 72%
19:00 +7°C° 0 mm 2 m/s 761 mmHg 73%
20:00 +6°C° 0 mm 2 m/s 761 mmHg 75%
21:00 +6°C° 0 mm 1 m/s 761 mmHg 76%
22:00 +5°C° 0 mm 2 m/s 761 mmHg 75%
23:00 +5°C° 0 mm 2 m/s 761 mmHg 74%

18 Abril, Domingo

Tempo Temperatura Precipitação Vento Pressão Humidade
00:00 +5°C° 0 mm 2 m/s 761 mmHg 73%
01:00 +4°C° 0 mm 2 m/s 761 mmHg 74%
02:00 +4°C° 0 mm 2 m/s 760 mmHg 75%
03:00 +4°C° 0 mm 2 m/s 760 mmHg 75%
04:00 +3°C° 0 mm 3 m/s 760 mmHg 76%
05:00 +3°C° 0 mm 3 m/s 760 mmHg 77%
06:00 +3°C° 0 mm 3 m/s 760 mmHg 78%
07:00 +5°C° 0 mm 4 m/s 760 mmHg 75%
08:00 +6°C° 0 mm 5 m/s 760 mmHg 71%
09:00 +7°C° 0 mm 5 m/s 760 mmHg 67%
10:00 +8°C° 0 mm 6 m/s 759 mmHg 64%
11:00 +9°C° 0 mm 6 m/s 759 mmHg 62%
12:00 +9°C° 0 mm 7 m/s 759 mmHg 59%
13:00 +9°C° 0 mm 7 m/s 758 mmHg 62%
14:00 +9°C° 0 mm 6 m/s 758 mmHg 64%
15:00 +9°C° 0 mm 6 m/s 757 mmHg 67%
16:00 +8°C° 0.2 mm 6 m/s 757 mmHg 72%
17:00 +8°C° 0.2 mm 6 m/s 757 mmHg 77%
18:00 +7°C° 0.2 mm 6 m/s 757 mmHg 82%
19:00 +6°C° 1 mm 7 m/s 756 mmHg 86%
20:00 +5°C° 1 mm 7 m/s 756 mmHg 90%
21:00 +5°C° 1 mm 7 m/s 756 mmHg 94%
22:00 +5°C° 1 mm 7 m/s 756 mmHg 95%
23:00 +5°C° 1 mm 7 m/s 755 mmHg 95%
Mostrar mais

Necessitamos do seu Consentimento

A Meteoprog e os seus Fornecedores de Serviços podem armazenar e aceder a dados pessoais como cookies, identificadores do dispositivo ou outras tecnologias semelhantes existentes no seu dispositivo e processar estes dados para personalizar conteúdos e anúncios, assim como funcionalidades nas redes sociais e análise de tráfego.

  • Armazenar e/ou aceder a informações no seu dispositivo

    Os cookies, identificadores do dispositivo ou outras informações podem ser armazenados ou acedidos no seu dispositivo, para os fins acima indicados.

  • Anúncios e conteúdos personalizados, medição de anúncios e conteúdos, dados sobre o público-alvo e desenvolvimento de produtos

    Os anúncios e os conteúdos podem ser personalizados com base num perfil. Podem ser adicionados dados adicionais para uma maior personalização dos anúncios e dos conteúdos. A eficácia dos anúncios e dos conteúdos pode ser medida. Podem ser obtidas informações sobre o público que visualizou os anúncios e os conteúdos. Estes dados podem ser usados para desenvolver ou melhorar sistemas, softwares ou a experiência do utilizador.

Ao clicar em "Eu concordo”, permitirá o uso de cookies, identificadores do dispositivo e web beacons mencionados ou outras tecnologias semelhantes. As configurações do navegador do seu dispositivo podem ser alteradas.

Para certos fins, podem ser invocados interesses legítimos ao invés de consentimento. Pode ler mais informação sobre este assunto na nossa Política de Privacidade e Cookies.